Regional Weather Roundup
Issued by NWS Newport/Morehead, NC

Current Version | Previous Version | Graphics & Text | Print | Product List | Glossary On
Versions: 1 2 3 4 5 6 7 8 9 10 11 12 13 14 15 16 17 18 19 20 21 22 23 24 25 26 27 28 29 30 31 32 33 34 35 36 37 38 39 40 41 42 43 44 45 46 47 48 49 50
000 ASUS42 KMHX 300913 RWRMHX WEATHER ROUNDUP FOR EASTERN NORTH CAROLINA NATIONAL WEATHER SERVICE NEWPORT/MOREHEAD CITY NC 500 AM EDT THU MAR 30 2017 NOTE: "FAIR" INDICATES FEW OR NO CLOUDS BELOW 12,000 FEET WITH NO SIGNIFICANT WEATHER AND/OR OBSTRUCTIONS TO VISIBILITY NCZ015>017-031-032-045>047-102-103-301000- NORTH COAST CITY SKY/WX TMP DP RH WIND PRES REMARKS EDENTON NOT AVBL ELIZABETH CITY CLEAR 47 45 93 N5 30.15R KITTY HAWK NOT AVBL MANTEO CLEAR 44 43 97 CALM 30.14S $$ NCZ045>047-081-094-103-104-301000- CENTRAL COAST CITY SKY/WX TMP DP RH WIND PRES REMARKS FRISCO CLEAR 54 44 69 NE7 30.12R $$ NCZ095-097-098-100-101-301000- SOUTHERN COAST CITY SKY/WX TMP DP RH WIND PRES REMARKS BEAUFORT CLEAR 52 50 93 NE5 30.11F CEDAR ISLAND NOT AVBL JACKSONVILLE CLEAR 54 50 86 E10 30.10F PINEY ISLAND SUNNY N/A N/A N/A NE12 30.11F WILMINGTON CLEAR 54 53 97 NE7 30.09F $$ NCZ011>013-027>030-043-044-078>080-089-090>093-098-301000- COASTAL PLAIN CITY SKY/WX TMP DP RH WIND PRES REMARKS AHOSKIE NOT AVBL CLINTON CLEAR 51 50 93 CALM 30.12S ELIZABETHTOWN CLEAR 53 53 100 CALM 30.10S FOG GOLDSBORO CLEAR 50 50 99 NE6 30.11F GREENVILLE PTCLDY 45 45 100 CALM 30.15F HAVELOCK NOT AVBL KENANSVILLE PTCLDY 46 46 100 CALM 30.12F FOG KINSTON CLEAR 47 45 93 CALM 30.14F NEW BERN CLEAR 48 48 100 NE5 30.14S RICHLANDS CLEAR 46 45 96 NE3 30.11F ROCKY MOUNT MOCLDY 49 47 93 NE3 30.15F WASHINGTON PTCLDY 42 41 97 CALM 30.14F WHITEVILLE CLEAR 56 54 94 NE5 30.08S $$ AMZ130-135-150-152-154-156-158-170-250-252-270-ANZ085-086-088-633-658-670-301000- MARINE OBSERVATIONS STATION/POSITION TIME TEMP WIND PRES WAVE SWELL AIR SEA DIR/SP/G HT/PER HT/PER (UTC) (F) (DEG/KT/KT) (MB) (FT/S) (FT/S) CHESAPEAKE LIGHT NOT AVBL 64 E VA BEACH 0850 49 51 10/ 12/ 16 1020.4 5/ 8 5/ 8 DUCK 0848 50 50 10/ 5/ 6 1020.2 2 E DUCK 0830 50 N/A 4/ 7 2/11 OREGON INLET 0842 49 56 10/ 5/ 6 1020.2 13E OREGON INLT 0848 50 N/A 5/ 8 5/ 8 HATTERAS CG 0848 56 60 40/ 6/ 10 1019.4 DIAMOND BUOY 0850 64 76 40/ 14/ 19 1018.9 7/ 9 7/ 9 CAPE LOOKOUT 0800 62 60/ 14/ 15 1019.2 BEAUFORT LAB 0848 53 62 20/ 5/ 7 1018.5 30 SE NEW RVR IN 0808 63 80/ 10/ 14 1019.3 30 SE NEW RVR IN 0843 63 N/A 5/10 2/11 27 SE WRIGHTSVLE NOT AVBL 5 SE WRIGHTSVLE 0808 60 58 70/ 12/ 16 1018.9 225 S CAPE HAT 0850 68 72 60/ 12/ 14 1017.3 6/ 9 5/ 9 41 SE CHARLESTON 0750 71 70 80/ 14/ 17 1016.0 5/ 9 3/ 9 $$

USA.gov is the U.S. government's official web portal to all federal, state and local government web resources and services.